Location: Staunton
(38.1490°N, 79.0720°W)
Time: 15:11:23
(UTC-05:00)

ISS - Pass Details

Date: 13 February 2018
Orbit: 403 x 407 km, 51.6° (Epoch: 20 February)

Event Time Altitude Azimuth Distance (km) Brightness Sun altitude
Rises 19:29:48 0° 290° (WNW) 2,315 1.2 -19.6°
Reaches altitude 10° 19:32:38 10° 264° (W) 1,452 0.2 -20.2°
Maximum altitude 19:34:21 14° 231° (SW) 1,247 -0.7 -20.5°
Drops below altitude 10° 19:36:05 10° 199° (SSW) 1,447 -0.8 -20.9°
Enters shadow 19:37:34 - 182° (S) 1,849 -0.5 -21.2°
